Terminal Aerodrome Forecast
Issued by NWS

Home | Current Version | Previous Version | Text Only | Print | Product List | Glossary On
Versions: 1 2 3 4 5 6 7 8 9 10 11 12 13 14 15 16 17 18 19 20 21 22 23 24 25 26 27 28 29 30 31 32 33 34 35 36 37 38 39 40 41 42 43 44 45 46 47 48 49 50
027
FTUS41 KCTP 260314 AAA
TAFAOO
TAF AMD
KAOO 260314Z 2603/2624 31007KT P6SM SKC
     FM260400 VRB02KT P6SM BKN080 OVC150
     FM261400 24007G14KT P6SM BKN040 OVC070
     FM262100 24008KT 5SM -SHRA BR BKN030 OVC050=

USA.gov is the U.S. government's official web portal to all federal, state and local government web resources and services.